User: anonymous   Login
Location: Unspecified
(0.0000°N, 0.0000°E)
Time: 17:27:03
(UTC+00:00)
Language:

ASTRA 1KR - Orbit

View from above orbital plane
View from above orbital plane
View from above satellite
View from above satellite

Ground track
Ground track

The orbit data is extracted from the following two-line orbital elements,

1 29055U 06012A   17023.27241675  .00000120  00000-0  00000+0 0  9999
2 29055   0.0479 267.9900 0004205   7.5050 324.5210  1.00273265 39335
Epoch (UTC): 23 January 2017 06:32:16
Eccentricity: 0.0004205
inclination: 0.0479°
perigee height: 35768 km
apogee height: 35803 km
right ascension of ascending node: 267.9900°
argument of perigee: 7.5050°
revolutions per day: 1.00273265
mean anomaly at epoch: 324.5210°
orbit number at epoch: 3933

The dashed part of the orbit path shows where the satellite is in the earth's shadow,  

DLR